Voltar ao catálogo

STARLINK-5884

AtivoComunicaçõesVLEO
NORAD 55957·PAYLOAD·🇺🇸 United States

Lançado Mar 17, 2023 de Vandenberg Space Force Base

Loading…

Próximas Passagens (próximas 24 horas)

TLE

AtualizadoSource: CelesTrak SupGP

Época: Sep 14, 2026, 21:43 UTC

1 55957C 23037AV  26257.90534722 -.00028808  00000+0 -24140-2 0  2577
2 55957  70.0005 147.4396 0003173 260.7816 122.9390 14.98348020    19

Acompanhe STARLINK-5884 em tempo real com AllMySat

Download on the App Store